Abakan, Russia

9:34 AM +07 on November 15, 2019 (GMT +0700)
Abakan

Weather History for UNAA - September, 2019

Change the Weather History Date:

Wednesday, September 11, 2019

  Actual Average Record
Temperature  
Mean Temperature 56 °F -  
Max Temperature 62 °F - - ()
Min Temperature 50 °F - - ()
Degree Days  
Heating Degree Days 9    
Growing Degree Days 6 (Base 50)    
Moisture  
Dew Point 46 °F    
Average Humidity 70    
Maximum Humidity 94    
Minimum Humidity 48    
Precipitation  
Precipitation 0.00 in - - ()
Sea Level Pressure  
Sea Level Pressure 29.95 in    
Wind  
Wind Speed 7 mph ()    
Max Wind Speed 16 mph    
Max Gust Speed 27 mph    
Visibility 6.2 miles    
Events Rain    
T = Trace of Precipitation, MM = Missing Value Source: Averaged Metar Reports

Daily Weather History Graph

Daily Weather History Graph

Search for Another Location

Airport or City:

Astronomy

Sep. 11, 2019 Rise Set
Actual Time 6:19 AM +07 7:21 PM +07
Civil Twilight 5:43 AM +07 7:57 PM +07
Nautical Twilight 5:00 AM +07 8:40 PM +07
Astronomical Twilight 4:12 AM +07 9:27 PM +07
Moon 6:48 PM +07 (9/11) 2:36 AM +07 (9/11)
Length of Visible Light 14h 13m
Length of Day
13h 02m
Waxing Gibbous, 92% of the Moon is Illuminated
Sep 11
Waxing Gibbous
Sep 14
Full
Sep 22
Last Quarter
Sep 29
New
Oct 5
First Quarter

Hourly Weather History & Observations

Time (+07) Temp. Dew Point Humidity Pressure Visibility Wind Dir Wind Speed Gust Speed Precip Events Conditions
12:00 AM 53.6 °F 46.4 °F 77% 29.98 in - West 6.7 mph - N/A   Clear
12:30 AM 51.8 °F 44.6 °F 76% 29.98 in - South 4.5 mph - N/A   Clear
1:00 AM 53.6 °F 46.4 °F 77% 29.98 in - SSW 4.5 mph - N/A   Clear
1:30 AM 53.6 °F 44.6 °F 72% 29.98 in - SW 6.7 mph - N/A   Clear
2:00 AM 53.6 °F 46.4 °F 77% 29.98 in - WSW 4.5 mph - N/A   Clear
2:30 AM 51.8 °F 46.4 °F 82% 29.98 in - SSW 6.7 mph - N/A   Clear
3:00 AM 51.8 °F 46.4 °F 82% 29.98 in - SSW 6.7 mph - N/A   Clear
3:30 AM 51.8 °F 46.4 °F 82% 29.98 in - SSW 4.5 mph - N/A   Clear
4:00 AM 51.8 °F 48.2 °F 88% 29.98 in 6.2 mi SSW 4.5 mph - N/A   Scattered Clouds
4:30 AM 51.8 °F 46.4 °F 82% 29.98 in 6.2 mi SSW 6.7 mph - N/A Rain Light Rain Showers
5:00 AM 50.0 °F 46.4 °F 87% 29.98 in 6.2 mi SSW 4.5 mph - N/A Rain Light Rain Showers
5:30 AM 51.8 °F 46.4 °F 82% 29.98 in 6.2 mi SSW 2.2 mph - N/A   Scattered Clouds
6:00 AM 51.8 °F 46.4 °F 82% 29.98 in 6.2 mi SW 2.2 mph - N/A   Scattered Clouds
6:30 AM 50.0 °F 46.4 °F 87% 29.98 in 6.2 mi South 2.2 mph - N/A Rain Light Rain Showers
7:30 AM 50.0 °F 48.2 °F 94% 29.98 in 6.2 mi South 4.5 mph - N/A Rain Light Rain Showers
8:00 AM 51.8 °F 48.2 °F 88% 29.98 in 6.2 mi SSW 4.5 mph - N/A   Scattered Clouds
8:30 AM 53.6 °F 48.2 °F 82% 29.98 in 6.2 mi SSW 4.5 mph - N/A   Scattered Clouds
9:00 AM 55.4 °F 48.2 °F 77% 29.98 in 6.2 mi SSW 6.7 mph - N/A   Scattered Clouds
9:30 AM 57.2 °F 46.4 °F 67% 29.98 in 6.2 mi SSW 6.7 mph - N/A   Scattered Clouds
10:00 AM 57.2 °F 46.4 °F 67% 29.95 in 6.2 mi SW 11.2 mph - N/A   Scattered Clouds
10:30 AM 59.0 °F 48.2 °F 67% 29.98 in 6.2 mi SSW 11.2 mph - N/A   Scattered Clouds
11:00 AM 57.2 °F 50.0 °F 77% 29.95 in 6.2 mi SSW 11.2 mph - N/A Rain Light Rain Showers
12:00 PM 60.8 °F 48.2 °F 63% 29.95 in 6.2 mi SSW 11.2 mph - N/A   Scattered Clouds
12:30 PM 60.8 °F 46.4 °F 59% 29.95 in 6.2 mi SW 15.7 mph - N/A   Scattered Clouds
1:00 PM 57.2 °F 48.2 °F 72% 29.92 in 5.6 mi WSW 15.7 mph - N/A Rain Light Rain Showers
2:00 PM 62.6 °F 46.4 °F 55% 29.92 in 6.2 mi SW 13.4 mph - N/A   Scattered Clouds
2:30 PM 62.6 °F 44.6 °F 52% 29.89 in 6.2 mi WSW 15.7 mph 26.8 mph N/A   Scattered Clouds
3:00 PM 62.6 °F 46.4 °F 55% 29.89 in 6.2 mi West 13.4 mph - N/A   Scattered Clouds
3:30 PM 62.6 °F 46.4 °F 55% 29.89 in 6.2 mi SW 13.4 mph - N/A   Scattered Clouds
4:00 PM 62.6 °F 44.6 °F 52% 29.89 in 6.2 mi WSW 13.4 mph - N/A   Scattered Clouds
4:30 PM 60.8 °F 44.6 °F 55% 29.89 in 6.2 mi West 11.2 mph - N/A   Scattered Clouds
5:00 PM 62.6 °F 44.6 °F 52% 29.89 in 6.2 mi WSW 11.2 mph - N/A   Scattered Clouds
5:30 PM 62.6 °F 42.8 °F 48% 29.89 in 6.2 mi WSW 13.4 mph - N/A   Scattered Clouds
6:30 PM 59.0 °F 42.8 °F 55% 29.89 in 6.2 mi West 15.7 mph - N/A   Scattered Clouds
8:00 PM 57.2 °F 42.8 °F 59% 29.95 in - WSW 13.4 mph - N/A   Clear
8:30 PM 55.4 °F 42.8 °F 63% 29.95 in - WSW 13.4 mph - N/A   Clear
9:30 PM 55.4 °F 42.8 °F 63% 29.95 in - WSW 8.9 mph - N/A   Clear
10:00 PM 55.4 °F 41.0 °F 58% 29.98 in - WSW 11.2 mph - N/A   Clear
10:30 PM 53.6 °F 41.0 °F 62% 29.98 in - WSW 11.2 mph - N/A   Clear
11:00 PM 51.8 °F 42.8 °F 71% 29.98 in 6.2 mi WSW 8.9 mph - N/A Rain Light Rain Showers
11:30 PM 51.8 °F 44.6 °F 76% 29.98 in 6.2 mi SW 6.7 mph - N/A   Scattered Clouds